This is the latest recevied weather packets stored in our database for station/object N2PUI. If no packets are shown the sender has not sent any weather packets the latest 10 day(s).
| Time | Temp. | Humidity | Pressure | Rain* | Wind** | Luminosity | Snow |
|---|---|---|---|---|---|---|---|
| 1777424735 | 12.22° C | 68% | 1016.5 hPa | 0 mm | - | 0 W/m² | - |
| 1777424430 | 12.22° C | 68% | 1016.5 hPa | 0 mm | - | 0 W/m² | - |
| 1777424126 | 12.22° C | 68% | 1016.7 hPa | 0 mm | - | 0 W/m² | - |
| 1777423824 | 12.22° C | 68% | 1016.7 hPa | 0 mm | - | 0 W/m² | - |
| 1777423520 | 12.22° C | 68% | 1016.5 hPa | 0 mm | - | 0 W/m² | - |
| 1777423215 | 12.22° C | 69% | 1016.8 hPa | 0 mm | - | 0 W/m² | - |
| 1777422914 | 12.22° C | 68% | 1016.7 hPa | 0 mm | - | 0 W/m² | - |
| 1777422611 | 12.22° C | 68% | 1016.8 hPa | 0 mm | - | 0 W/m² | - |
| 1777422307 | 12.22° C | 69% | 1016.7 hPa | 0 mm | - | 0 W/m² | - |
| 1777422001 | 12.22° C | 68% | 1016.4 hPa | 0 mm | - | 0 W/m² | - |
| 1777421696 | 12.22° C | 69% | 1016.5 hPa | 0 mm | - | 0 W/m² | - |
| 1777421391 | 12.22° C | 68% | 1016.3 hPa | 0 mm | - | 0 W/m² | - |
| 1777421088 | 12.22° C | 68% | 1016.3 hPa | 0 mm | - | 0 W/m² | - |
| 1777420784 | 12.22° C | 68% | 1016.5 hPa | 0 mm | - | 0 W/m² | - |
| 1777420480 | 12.22° C | 68% | 1016.7 hPa | 0 mm | - | 0 W/m² | - |
| 1777420178 | 12.22° C | 67% | 1016.5 hPa | 0 mm | - | 1 W/m² | - |
| 1777419873 | 12.22° C | 68% | 1016.8 hPa | 0 mm | - | 2 W/m² | - |
| 1777419570 | 12.22° C | 67% | 1016.5 hPa | 0 mm | - | 4 W/m² | - |
| 1777419269 | 12.22° C | 67% | 1016.8 hPa | 0 mm | - | 6 W/m² | - |
| 1777418966 | 12.22° C | 67% | 1016.8 hPa | 0 mm | - | 5 W/m² | - |
| 1777418661 | 12.22° C | 66% | 1016.9 hPa | 0 mm | - | 7 W/m² | - |
| 1777418358 | 12.22° C | 66% | 1016.8 hPa | 0 mm | - | 10 W/m² | - |
| 1777418054 | 12.22° C | 66% | 1016.7 hPa | 0 mm | - | 13 W/m² | - |
| 1777417750 | 12.22° C | 66% | 1016.9 hPa | 0 mm | - | 16 W/m² | - |
| 1777417445 | 12.22° C | 65% | 1017.1 hPa | 0 mm | - | 22 W/m² | - |
* Rain latest hour (hover to see other rain measurements)
** Current wind speed in m/s (hover to see current wind gust speed)